TimeEDT,TemperatureF,Dew PointF,Humidity,Sea Level PressureIn,VisibilityMPH,Wind Direction,Wind SpeedMPH,Gust SpeedMPH,PrecipitationIn,Events,Conditions,WindDirDegrees,DateUTC
12:53 AM,82.0,69.1,65,30.02,10.0,ENE,10.4,-,N/A,,Partly Cloudy,70,2013-10-02 04:53:00
1:53 AM,82.0,69.1,65,30.02,10.0,East,9.2,-,N/A,,Scattered Clouds,80,2013-10-02 05:53:00
2:53 AM,82.0,69.1,65,30.01,10.0,ENE,8.1,-,N/A,,Partly Cloudy,70,2013-10-02 06:53:00
3:53 AM,82.0,69.1,65,29.99,10.0,East,8.1,-,N/A,,Partly Cloudy,80,2013-10-02 07:53:00
4:53 AM,82.0,69.1,65,29.99,10.0,ENE,10.4,-,N/A,,Scattered Clouds,70,2013-10-02 08:53:00
5:53 AM,82.0,70.0,67,29.98,10.0,ENE,9.2,-,N/A,,Partly Cloudy,70,2013-10-02 09:53:00
6:53 AM,82.0,69.1,65,30.00,10.0,ENE,9.2,-,N/A,,Mostly Cloudy,60,2013-10-02 10:53:00
7:53 AM,82.0,69.1,65,30.00,10.0,ENE,11.5,-,N/A,,Mostly Cloudy,70,2013-10-02 11:53:00
8:53 AM,84.0,69.1,61,30.02,10.0,ENE,11.5,-,N/A,,Mostly Cloudy,60,2013-10-02 12:53:00
9:53 AM,84.9,69.1,59,30.03,10.0,ENE,13.8,-,N/A,,Mostly Cloudy,60,2013-10-02 13:53:00
10:53 AM,87.1,69.1,55,30.04,10.0,ENE,12.7,19.6,N/A,,Mostly Cloudy,60,2013-10-02 14:53:00
11:53 AM,87.1,70.0,57,30.04,10.0,East,13.8,-,N/A,,Mostly Cloudy,90,2013-10-02 15:53:00
12:53 PM,86.0,70.0,59,30.04,10.0,East,13.8,-,N/A,,Mostly Cloudy,80,2013-10-02 16:53:00
1:53 PM,87.1,70.0,57,30.02,10.0,East,13.8,-,N/A,,Mostly Cloudy,80,2013-10-02 17:53:00
2:53 PM,86.0,69.1,57,30.01,10.0,NE,16.1,21.9,N/A,,Mostly Cloudy,50,2013-10-02 18:53:00
3:53 PM,86.0,69.1,57,29.98,10.0,ENE,15.0,20.7,N/A,,Scattered Clouds,70,2013-10-02 19:53:00
4:53 PM,84.9,69.1,59,29.98,10.0,ENE,11.5,-,N/A,,Scattered Clouds,60,2013-10-02 20:53:00
5:53 PM,84.0,69.1,61,30.00,10.0,East,10.4,-,N/A,,Mostly Cloudy,80,2013-10-02 21:53:00
6:53 PM,82.9,69.1,63,30.00,10.0,ENE,9.2,-,N/A,,Mostly Cloudy,60,2013-10-02 22:53:00
7:53 PM,82.9,69.1,63,30.01,10.0,NE,8.1,-,N/A,,Mostly Cloudy,50,2013-10-02 23:53:00
8:53 PM,82.9,69.1,63,30.03,10.0,ENE,9.2,-,N/A,,Mostly Cloudy,70,2013-10-03 00:53:00
9:53 PM,82.9,70.0,65,30.04,10.0,ENE,8.1,-,N/A,,Mostly Cloudy,60,2013-10-03 01:53:00
10:53 PM,82.9,70.0,65,30.04,10.0,ENE,10.4,-,N/A,,Mostly Cloudy,60,2013-10-03 02:53:00
11:53 PM,82.9,70.0,65,30.05,10.0,East,8.1,-,N/A,,Mostly Cloudy,80,2013-10-03 03:53:00